KI4UEM Weather Reports


time (UTC)temp
F
wind
direction
speed
knots
gust
knots
rain 1hr
in
rain 24hr
in
rain mn
in
humidity
%
barometer
mb
20260505201016 83 225 4.3 9.6 0.00 0.00 0.00 36 1016.1
20260505200016 82 203 3.5 7.8 0.00 0.00 0.00 36 1016.1
20260505195016 81 203 2.6 7.0 0.00 0.00 0.00 37 1016.2
20260505194015 83 225 6.1 20.0 0.00 0.00 0.00 37 1016.4
20260505193016 83 225 6.1 12.2 0.00 0.00 0.00 39 1016.5
20260505192016 82 203 3.5 7.8 0.00 0.00 0.00 38 1016.8
20260505191056 81 225 2.6 7.0 0.00 0.00 0.00 40 1017.0
20260505190016 82 203 2.6 7.8 0.00 0.00 0.00 38 1017.3
20260505185015 81 203 5.2 12.2 0.00 0.00 0.00 40 1017.3
20260505184035 80 225 4.3 8.7 0.00 0.00 0.00 42 1017.9
20260505183036 80 225 5.2 8.7 0.00 0.00 0.00 40 1018.0
20260505182015 81 203 2.6 8.7 0.00 0.00 0.00 39 1018.0
20260505181036 80 225 2.6 8.7 0.00 0.00 0.00 45 1018.0
20260505180016 79 203 2.6 7.0 0.00 0.00 0.00 43 1017.9
20260505175036 80 225 4.3 8.7 0.00 0.00 0.00 41 1017.9
20260505174015 81 248 4.3 8.7 0.00 0.00 0.00 42 1017.8
20260505173015 80 225 1.7 6.1 0.00 0.00 0.00 44 1017.9
20260505172015 80 135 2.6 7.8 0.00 0.00 0.00 42 1018.0
20260505171057 80 225 2.6 7.8 0.00 0.00 0.00 45 1018.1
20260505170017 79 248 6.1 15.6 0.00 0.00 0.00 42 1018.3
20260505165017 80 248 4.3 8.7 0.00 0.00 0.00 42 1018.5
20260505164017 78 225 2.6 6.1 0.00 0.00 0.00 49 1018.6
20260505163017 78 225 3.5 9.6 0.00 0.00 0.00 45 1018.6
20260505162017 78 180 1.7 5.2 0.00 0.00 0.00 53 1018.6
20260505161017 76 225 3.5 7.8 0.00 0.00 0.00 53 1018.7
20260505153017 75 225 2.6 7.0 0.00 0.00 0.00 61 1019.1
20260505152017 74 225 6.1 9.6 0.00 0.00 0.00 61 1019.3
20260505151017 73 225 5.2 9.6 0.00 0.00 0.00 61 1019.4
20260505125017 62 315 2.6 4.3 0.00 0.00 0.00 82 1019.0
20260505124017 62 23 0.9 2.6 0.00 0.00 0.00 84 1019.0
20260505123017 60 23 0.9 1.7 0.00 0.00 0.00 88 1018.8
20260505122017 58 23 0.9 2.6 0.00 0.00 0.00 93 1018.8
20260505121017 55 0.0 0.9 0.00 0.00 0.00 93 1018.7
20260505120037 54 0.0 0.0 0.00 0.00 0.00 93 1018.7
20260505115017 52 0.0 0.9 0.00 0.00 0.00 93 1018.6
20260505114017 51 0.0 0.0 0.00 0.00 0.00 92 1018.5
20260505113017 50 0.0 0.0 0.00 0.00 0.00 92 1018.5
20260505112017 49 23 0.9 1.7 0.00 0.00 0.00 91 1018.3
20260505111017 49 0.0 0.0 0.00 0.00 0.00 91 1018.3
20260505102017 49 0.0 0.0 0.00 0.00 0.00 90 1017.9
20260505101017 50 0.0 0.0 0.00 0.00 0.00 90 1017.9
20260505100016 50 0.0 0.0 0.00 0.00 0.00 89 1017.9
20260505095017 50 0.0 0.0 0.00 0.00 0.00 89 1017.9
20260505094017 50 0.0 0.0 0.00 0.00 0.00 89 1017.8
20260505093017 50 0.0 0.0 0.00 0.00 0.00 88 1017.7
20260505092017 50 0.0 0.0 0.00 0.00 0.00 88 1017.7
20260505091017 51 0.0 0.0 0.00 0.00 0.00 87 1017.6
20260505090017 51 0.0 0.0 0.00 0.00 0.00 87 1017.5
20260505085016 51 0.0 0.0 0.00 0.00 0.00 87 1017.6
20260505084037 51 0.0 0.0 0.00 0.00 0.00 85 1017.5
20260505083017 52 0.0 0.0 0.00 0.00 0.00 85 1017.6
20260505082017 52 0.0 0.0 0.00 0.00 0.00 85 1017.5
20260505081037 52 0.0 0.0 0.00 0.00 0.00 84 1017.4
20260505080017 53 0.0 0.0 0.00 0.00 0.00 84 1017.4
20260505075016 53 0.0 0.0 0.00 0.00 0.00 83 1017.5
20260505074016 53 0.0 0.0 0.00 0.00 0.00 83 1017.4
20260505073017 54 0.0 0.0 0.00 0.00 0.00 82 1017.3
20260505072057 54 0.0 0.0 0.00 0.00 0.00 80 1017.3
20260505071017 55 0.0 0.0 0.00 0.00 0.00 79 1017.4
20260505070017 56 0.0 0.0 0.00 0.00 0.00 78 1017.3
20260505065016 56 0.0 0.0 0.00 0.00 0.00 78 1017.4
20260505064016 57 0.0 0.0 0.00 0.00 0.00 78 1017.5
20260505063036 57 0.0 0.0 0.00 0.00 0.00 78 1017.5
20260505062016 57 0.0 0.0 0.00 0.00 0.00 77 1017.5
20260505061016 58 0.0 0.0 0.00 0.00 0.00 76 1017.6
20260505060016 58 0.0 0.9 0.00 0.00 0.00 75 1017.8
20260505055016 58 0.0 0.0 0.00 0.00 0.00 74 1017.7
20260505054016 59 0.0 0.0 0.00 0.00 0.00 74 1017.6
20260505053016 59 0.0 0.9 0.00 0.00 0.00 73 1017.9
20260505052036 59 0.0 0.0 0.00 0.00 0.00 72 1017.9
20260505051016 59 0.0 0.9 0.00 0.00 0.00 72 1017.9
20260505041016 61 0.0 0.9 0.00 0.00 0.00 68 1018.2
20260505040016 61 0.0 0.9 0.00 0.00 0.00 68 1018.2
20260505035016 61 0.0 1.7 0.00 0.00 0.00 67 1018.2
20260505034017 62 0.0 0.9 0.00 0.00 0.00 66 1018.2
20260505033017 62 0.0 0.9 0.00 0.00 0.00 65 1018.3
20260505032016 63 0.0 1.7 0.00 0.00 0.00 65 1018.4
20260505031017 63 0.0 2.6 0.00 0.00 0.00 64 1018.4
20260505030017 63 0.0 2.6 0.00 0.00 0.00 64 1018.3
20260505025016 64 0.0 1.7 0.00 0.00 0.00 63 1018.3
20260505024016 64 0.0 0.9 0.00 0.00 0.00 62 1018.3
20260505023016 64 0.0 0.9 0.00 0.00 0.00 62 1018.3
20260505022016 65 0.0 2.6 0.00 0.00 0.00 62 1018.2
20260505021016 65 0.0 0.9 0.00 0.00 0.00 61 1018.1
20260505020016 66 0.0 2.6 0.00 0.00 0.00 60 1017.9
20260505015016 66 0.0 2.6 0.00 0.00 0.00 60 1017.8
20260505014016 67 0.0 1.7 0.00 0.00 0.00 59 1017.7
20260505013017 67 0.0 1.7 0.00 0.00 0.00 59 1017.5
20260505012016 67 0 1.7 4.3 0.00 0.00 0.00 58 1017.5
20260505011016 68 0 0.9 2.6 0.00 0.00 0.00 58 1017.4
20260505010016 68 0 0.9 7.0 0.00 0.00 0.00 57 1017.3
20260505005016 69 0 0.9 3.5 0.00 0.00 0.00 56 1017.1
20260505004016 70 0.0 1.7 0.00 0.00 0.00 55 1016.9
20260505003016 70 0 0.9 2.6 0.00 0.00 0.00 53 1016.8
20260505002016 71 0.0 0.9 0.00 0.00 0.00 52 1016.6
20260505001016 72 0.0 2.6 0.00 0.00 0.00 49 1016.4
20260505000037 73 0.0 2.6 0.00 0.00 0.00 45 1016.3
20260504235056 74 0.0 0.9 0.00 0.00 0.00 46 1016.1
20260504234016 75 0.0 0.0 0.00 0.00 0.00 44 1016.0
20260504233036 75 0.0 0.0 0.00 0.00 0.00 43 1016.0
20260504232016 75 225 0.9 2.6 0.00 0.00 0.00 42 1015.9
20260504231016 76 225 0.9 2.6 0.00 0.00 0.00 42 1015.9
20260504230016 76 225 1.7 3.5 0.00 0.00 0.00 40 1016.1
20260504225036 76 225 1.7 5.2 0.00 0.00 0.00 38 1016.1
20260504224016 76 203 1.7 5.2 0.00 0.00 0.00 36 1016.1
20260504223016 78 225 3.5 7.0 0.00 0.00 0.00 33 1016.3
20260504222016 79 225 3.5 7.0 0.00 0.00 0.00 35 1016.2
20260504221016 79 248 5.2 10.4 0.00 0.00 0.00 32 1016.2
20260504220016 79 225 5.2 9.6 0.00 0.00 0.00 33 1016.2
20260504215016 79 248 1.7 5.2 0.00 0.00 0.00 33 1016.2
20260504214056 79 248 5.2 8.7 0.00 0.00 0.00 33 1016.1
20260504213016 79 225 4.3 7.8 0.00 0.00 0.00 31 1016.1
20260504212016 79 248 6.1 11.3 0.00 0.00 0.00 30 1016.0
20260504211036 80 225 4.3 10.4 0.00 0.00 0.00 31 1016.2
20260504210016 79 225 3.5 8.7 0.00 0.00 0.00 30 1016.2
20260504205016 79 225 4.3 9.6 0.00 0.00 0.00 30 1016.2
20260504204016 79 225 6.1 9.6 0.00 0.00 0.00 31 1016.2
20260504203036 79 225 2.6 7.8 0.00 0.00 0.00 32 1016.2
20260504202016 79 225 1.7 5.2 0.00 0.00 0.00 30 1016.4